TIME,DELAY(SENSOR),PRES,OXYGEN,RAWTEMP,T(OPTODE),TCPHASE,FLUOR,BETA(BETA700),BETA(BETA412),BETA(BETA440),CDOM,C(CSC),ED(ED412.40),ED(ED444.00),ED(ED489.70),ED(ED554.30),LU(LU411.80),LU(LU443.40),LU(LU489.60),LU(LU554.10),COMP,TILTX,TILTY,CHECK
1339126586,5804,888.5999755859375000,41.0504188537597660,657.0983886718750000,4.7234520912170410,54.8075485229492200,52,101,87,80,84,15347,2147751899,2147420662,2148005595,2147874642,2147644544,2147066349,2148262738,2147199716,2388,4,14,52565
1339130183,5807,971.0599975585938000,45.3195991516113300,667.1635131835938000,4.3918509483337400,54.2977294921875000,53,98,89,78,83,15349,2147757193,2147420370,2148008082,2147875483,2147645787,2147067163,2148261028,2147198866,2705,4,14,55160
1339133783,5809,989.3200073242188000,45.6223983764648440,668.6195068359375000,4.3437900543212890,54.2663307189941400,53,98,89,79,83,15350,2147762057,2147421632,2148005184,2147877147,2147645549,2147065773,2148266377,2147201462,3579,4,14,56183
1339137383,5805,982.9099731445312000,46.5319709777832000,670.3953857421875000,4.2851347923278810,54.1616706848144500,52,99,89,81,83,15347,2147759378,2147420342,2148008630,2147877019,2147645686,2147060370,2148259858,2147202642,154,4,13,1349
1339140983,5810,975.5000000000000000,47.3648109436035160,673.4948120117188000,4.1826820373535160,54.0799293518066400,51,100,87,80,84,15348,2147760356,2147417490,2148007661,2147875693,2147648521,2147060041,2148266011,2147200932,386,4,13,17566
1339144583,5807,979.2100219726562000,48.3345794677734400,676.1953125000000000,4.0933270454406740,53.9825286865234400,52,100,88,79,83,15350,2147758619,2147418752,2148006838,2147876690,2147648786,2147059245,2148262180,2147201462,454,4,13,18486
1339148183,5809,980.3699951171875000,48.3463592529296900,676.9984741210938000,4.0667319297790530,53.9864883422851560,53,100,86,78,82,15351,2147763821,2147419986,2148004562,2147878253,2147647524,2147064000,2148262820,2147203108,86,5,13,33536
1339151783,5809,984.1699829101562000,48.4240493774414060,676.3605957031250000,4.0878520011901855,53.9669799804687500,52,97,88,80,82,15350,2147760219,2147423140,2148008027,2147873764,2147648192,2147060507,2148264438,2147199396,3554,4,13,38490
1339155383,5808,991.1599731445312000,47.8495216369628900,675.1179809570312000,4.1289811134338380,54.0317611694335940,53,100,90,79,83,15348,2147759853,2147419154,2148006829,2147875392,2147648438,2147060461,2148266285,2147200576,3419,4,13,15390
1339158983,5808,1000.7500000000000000,47.5883598327636700,675.4061279296875000,4.1194458007812500,54.0756492614746100,53,101,88,79,84,15349,2147760548,2147419419,2148006793,2147874221,2147646089,2147054445,2148263286,2147199570,625,4,13,45861
1339162583,5809,1003.8800048828125000,46.8305206298828100,673.0305786132812000,4.1980319023132320,54.1524887084960940,53,98,89,79,84,15348,2147757138,2147419638,2148005668,2147877138,2147646153,2147061906,2148259446,2147200832,343,4,13,4613
1339166183,5810,1018.2800292968750000,46.3206710815429700,671.0139160156250000,4.2646980285644530,54.1958885192871100,53,100,88,78,83,15347,2147761380,2147419382,2148003730,2147876461,2147643264,2147060178,2148263844,2147202422,2356,4,14,58179
1339169783,5808,999.2500000000000000,46.0658988952636700,671.4520263671875000,4.2502207756042480,54.2420196533203100,52,99,89,78,83,15348,2147759533,2147420452,2148010093,2147874029,2147647323,2147062592,2148265252,2147201243,216,4,13,45186
1339173383,5806,1007.8200073242188000,46.1737098693847660,672.4517822265625000,4.2171688079833980,54.2349700927734400,53,98,88,78,83,15348,2147760265,2147420571,2148004617,2147875145,2147642441,2147057234,2148263232,2147203657,598,4,13,37762
1339176983,5810,1010.8300170898438000,46.3526191711425800,672.7039184570312000,4.2088360786437990,54.2130088806152340,52,98,87,80,83,15347,2147761197,2147419346,2148005257,2147872475,2147642925,2147060178,2148263085,2147201051,238,4,13,2624
1339180583,5808,1001.6400146484375000,46.0356292724609400,672.3790283203125000,4.2195801734924320,54.2542610168457000,52,99,88,79,83,15348,2147761901,2147420470,2148008219,2147875291,2147643849,2147061568,2148260160,2147199698,566,4,13,48813
1339184183,5811,988.4400024414062000,47.0899085998535160,675.0767211914062000,4.1303501129150390,54.1386909484863300,53,99,88,80,84,15348,2147762194,2147419382,2148007734,2147876132,2147648182,2147063424,2148269156,2147198957,3234,4,13,62089
1339187783,5810,988.4000244140625000,48.5103302001953100,677.5059204101562000,4.0499291419982910,53.9681091308593750,53,123,87,79,83,15348,2147763364,2147421266,2148006902,2147874852,2147645202,2147058468,2148265773,2147201133,294,4,13,29855
1339191383,5807,992.4099731445312000,48.4608192443847660,677.5018920898438000,4.0500597953796390,53.9761695861816400,53,98,86,79,83,15348,2147765760,2147422592,2148006262,2147878180,2147647890,2147057910,2148262738,2147198363,3554,4,14,9013
1339194983,5808,1002.6400146484375000,47.8312606811523440,675.8187255859375000,4.1057929992675780,54.0453910827636700,52,100,86,80,83,15342,2147759926,2147419958,2148007414,2147873115,2147648082,2147060745,2148261577,2147200374,127,4,13,33002
1339198583,5809,1008.1300048828125000,47.4422912597656250,674.5587158203125000,4.1474881172180180,54.0862388610839840,52,100,87,80,84,15344,2147763392,2147419968,2148010880,2147873837,2147646006,2147055926,2148264027,2147200667,3379,4,13,58584
1339202183,5809,999.3300170898438000,46.6460800170898440,673.9160156250000000,4.1687507629394530,54.1897087097168000,53,100,89,79,84,15337,2147761472,2147422262,2148005485,2147874349,2147645769,2147061805,2148262582,2147200987,108,4,13,12229
1339205783,5804,1015.4299926757812000,47.6625404357910160,674.9583740234375000,4.1342620849609375,54.0558891296386700,52,99,85,79,84,15337,2147759789,2147420022,2148006189,2147872658,2147643648,2147056694,2148265691,2147200621,3406,4,13,11780
1339209383,5812,1016.0100097656250000,46.9970397949218750,673.2990112304688000,4.1891570091247560,54.1307983398437500,52,99,88,80,83,15335,2147757659,2147421504,2148007186,2147873910,2147648000,2147055460,2148265645,2147198976,3546,4,13,23046
1339212983,5811,1014.5200195312500000,46.5007591247558600,671.8599853515625000,4.2367358207702640,54.1801490783691400,53,99,92,78,83,15321,2147759030,2147423012,2148007698,2147872841,2147644041,2147054098,2148264173,2147200128,192,4,13,55239
1339216583,5810,1014.7100219726562000,45.7232208251953100,671.3134155273438000,4.2548031806945800,54.2854194641113300,53,100,91,79,84,15333,2147762642,2147422976,2148006052,2147875766,2147645824,2147062089,2148265033,2147195776,179,4,14,65059
1339220183,5808,1010.5100097656250000,45.5638885498046900,670.9287109375000000,4.2675151824951170,54.3068885803222660,53,100,88,81,83,15335,2147758628,2147420992,2148008658,2147876580,2147644489,2147065426,2148259401,2147197522,388,4,13,62963
1339223783,5808,1006.1599731445312000,46.2010116577148440,672.8870239257812000,4.2027797698974610,54.2368698120117200,53,98,90,78,84,14951,2147759634,2147421513,2148007616,2147876635,2147647131,2147059602,2148261952,2147200201,509,4,13,44465
1339227383,5807,1004.3099975585938000,47.1200218200683600,674.3532104492188000,4.1542868614196780,54.1275596618652340,53,99,91,79,83,15308,2147761462,2147420790,2148009115,2147875840,2147646400,2147058002,2148264018,2147196507,772,4,13,64699
1339230983,5809,998.3200073242188000,47.0835609436035160,675.4744873046875000,4.1171841621398930,54.1465110778808600,52,100,88,80,84,15312,2147761984,2147422948,2148007094,2147875163,2147648082,2147062683,2148263433,2147202276,258,4,13,16615
1339234583,5810,1000.5100097656250000,47.6709518432617200,675.6494140625000000,4.1113948822021480,54.0635604858398440,51,103,85,80,83,15309,2147764480,2147420672,2148007872,2147877467,2147648329,2147063515,2148265106,2147200676,281,4,13,10283
1339238183,5810,995.6400146484375000,47.6238403320312500,677.6427001953125000,4.0453968048095700,54.0979194641113300,53,98,92,80,83,15317,2147756836,2147421942,2148007469,2147878546,2147644726,2147053778,2148268763,2147197220,2715,4,13,37589
1339241783,5805,992.3099975585938000,48.3070983886718750,677.9655151367188000,4.0347042083740230,54.0058288574218750,53,99,89,80,83,15313,2147760466,2147421632,2148006582,2147874816,2147643812,2147056941,2148264941,2147201837,125,4,14,9586
1339245383,5808,998.2899780273438000,48.2379493713378900,677.3870239257812000,4.0538649559021000,54.0067100524902340,53,99,88,80,83,15315,2147759314,2147423360,2148006336,2147873362,2147645650,2147061440,2148264429,2147196105,3506,4,13,5491
1339248983,5811,1005.5000000000000000,47.7424201965332000,675.9213256835938000,4.1023960113525390,54.0537986755371100,52,97,90,80,84,15312,2147761874,2147422116,2148007003,2147872310,2147647707,2147059867,2148262518,2147197732,92,4,13,29642
1339252583,5811,1014.2800292968750000,47.5756683349609400,675.2788696289062000,4.1236548423767090,54.0735282897949200,52,99,90,80,83,15309,2147760640,2147422646,2148007424,2147874459,2147645741,2147058422,2148262747,2147199963,341,4,13,39940
1339256183,5810,1025.6500244140625000,46.4310493469238300,672.2733154296875000,4.2230739593505860,54.1972198486328100,52,100,91,79,83,15310,2147756333,2147420644,2148008493,2147875053,2147645778,2147059309,2148263149,2147196507,3493,4,13,1022
1339259783,5809,1026.1800537109375000,46.1221618652343750,671.2208251953125000,4.2578601837158200,54.2279815673828100,52,100,88,79,84,15311,2147760018,2147419446,2148009161,2147874624,2147645897,2147061851,2148262208,2147202157,277,4,13,51226
1339263383,5806,1021.1900024414062000,46.3692283630371100,672.7736206054688000,4.2065320014953610,54.2114295959472660,53,100,89,80,85,15312,2147756644,2147424320,2148009197,2147879003,2147649225,2147062390,2148263789,2147198317,3271,4,14,12499
1339266983,5808,1014.2700195312500000,45.6221618652343750,672.8336181640625000,4.2045459747314450,54.3220291137695300,52,124,86,79,84,15312,2147757796,2147422756,2148008585,2147870747,2147646116,2147060854,2148263168,2147199808,3577,4,13,6609
1339270583,5810,1004.3900146484375000,46.1814918518066400,674.3903808593750000,4.1530570983886720,54.2617187500000000,53,98,90,79,83,15309,2147759414,2147423460,2148008896,2147879478,2147647899,2147057654,2148265106,2147196754,967,4,13,52792
1339271456,5808,990.0100097656250000,46.8487510681152340,675.2910156250000000,4.1232571601867680,54.1762199401855500,52,102,89,79,83,15329,2147762148,2147421348,2148006427,2147872777,2147645824,2147055314,2148260050,2147197604,332,4,13,33628
